Location: Devore Heights
(34.2372°N, 117.4156°W)
Time: 11:05:38
(UTC+00:00)

Explorer 7 - All Passes

Search period start: 07 September 2024 00:00
Search period end: 17 September 2024 00:00
Orbit: 463 x 611 km, 50.3° (Epoch: 06 September)

Date Brightness Start Highest point End Pass type
(mag) Time Alt. Az. Time Alt. Az. Time Alt. Az.
07 Sep - 11:08:46 10° S 11:11:34 20° SE 11:14:20 10° E visible
07 Sep - 12:47:24 10° WSW 12:50:51 38° NW 12:54:16 10° NE visible
07 Sep - 17:50:45 10° NNW 17:53:04 16° NNE 17:55:25 10° ENE daylight
07 Sep - 19:29:09 10° NW 19:32:56 89° SW 19:36:54 10° SE daylight
08 Sep - 10:58:27 10° SSW 11:01:39 27° SE 11:04:48 10° ENE visible
08 Sep - 12:37:46 10° W 12:41:03 30° NNW 12:44:18 10° NNE visible
08 Sep - 17:40:40 10° NNW 17:43:19 18° NNE 17:46:02 10° ENE daylight
08 Sep - 19:19:20 10° NW 19:23:04 66° SW 19:26:58 10° SE daylight
09 Sep - 10:48:14 10° SSW 10:51:43 37° SE 10:55:07 10° ENE visible
09 Sep - 12:28:10 10° W 12:31:14 24° NNW 12:34:16 10° NNE visible
09 Sep - 17:30:35 10° NNW 17:33:30 22° NNE 17:36:31 10° E daylight
09 Sep - 19:09:30 10° WNW 19:13:07 48° SW 19:16:54 10° SSE daylight
10 Sep - 10:38:05 10° SSW 10:41:45 51° SE 10:45:18 10° ENE visible
10 Sep - 12:18:35 10° W 12:21:23 20° NNW 12:24:09 10° NNE visible
10 Sep - 17:20:29 10° NNW 17:23:39 26° NNE 17:26:53 10° E daylight
10 Sep - 18:59:41 10° WNW 19:03:08 35° SW 19:06:42 10° SSE daylight
11 Sep - 10:27:58 10° SW 10:31:44 71° SE 10:35:24 10° NE visible
11 Sep - 12:09:02 10° WNW 12:11:30 17° NNW 12:13:58 10° NNE visible
11 Sep - 17:10:22 10° NNW 17:13:43 33° NE 17:17:09 10° E daylight
11 Sep - 18:49:56 10° WNW 18:53:05 26° SW 18:56:21 10° S daylight
12 Sep - 10:17:54 10° SW 10:21:43 85° NW 10:25:24 10° NE visible
12 Sep - 11:59:30 10° WNW 12:01:36 14° NNW 12:03:41 10° N visible
12 Sep - 17:00:14 10° NW 17:03:44 41° NE 17:07:19 10° ESE daylight
12 Sep - 18:40:14 10° W 18:43:00 20° SW 18:45:49 10° S daylight
13 Sep - 08:30:47 10° SSE 08:32:33 13° SE 08:34:16 10° E night (unlit)
13 Sep - 10:07:52 10° WSW 10:11:39 64° NW 10:15:19 10° NE visible
13 Sep - 11:50:03 10° NW 11:51:40 12° NNW 11:53:17 10° N visible
13 Sep - 15:12:20 10° N 15:13:35 11° NNE 15:14:51 10° NE daylight
13 Sep - 16:50:06 10° NW 16:53:41 54° NE 16:57:22 10° ESE daylight
13 Sep - 18:30:43 10° W 18:32:50 15° SW 18:35:00 10° SSW daylight
14 Sep - 08:19:45 10° S 08:22:21 17° SE 08:24:54 10° E night (unlit)
14 Sep - 09:57:52 10° WSW 10:01:34 48° NW 10:05:09 10° NE visible
14 Sep - 11:40:46 10° NW 11:41:44 11° NNW 11:42:41 10° N visible
14 Sep - 15:01:49 10° N 15:03:38 13° NNE 15:05:27 10° NE daylight
14 Sep - 16:39:56 10° NW 16:43:35 73° NE 16:47:19 10° SE daylight
14 Sep - 18:21:46 10° WSW 18:22:38 11° SW 18:23:29 10° SW daylight
15 Sep - 08:09:01 10° S 08:12:08 23° SE 08:15:10 10° ENE night (unlit)
15 Sep - 09:47:52 10° WSW 09:51:27 37° NW 09:54:56 10° NE visible
15 Sep - 14:51:22 10° NNW 14:53:36 15° NNE 14:55:51 10° ENE daylight
15 Sep - 16:29:46 10° NW 16:33:25 83° SW 16:37:10 10° SE daylight
16 Sep - 07:58:24 10° SSW 08:01:53 30° SE 08:05:15 10° ENE night (unlit)
16 Sep - 09:37:54 10° W 09:41:19 30° NNW 09:44:37 10° NNE night (unlit)
16 Sep - 14:40:55 10° NNW 14:43:31 18° NNE 14:46:07 10° ENE daylight
16 Sep - 16:19:36 10° NW 16:23:12 61° SW 16:26:53 10° SE daylight
